Zurück zum Katalog

STARLINK-34457

AktivKommunikationVLEO
NORAD 64368·PAYLOAD·🇺🇸 United States

Gestartet Jun 13, 2025 von Vandenberg Space Force Base

Loading…

Nächste Überflüge (nächste 24 Stunden)

TLE

AktuellSource: CelesTrak SupGP

Epoche: Sep 14, 2026, 14:37 UTC

1 64368C 25126AA  26257.60951389 -.00030868  00000+0 -10747-2 0  2570
2 64368  70.0002 276.4023 0003343 269.4903  76.8281 15.29566754    11

Verfolge STARLINK-34457 in Echtzeit mit AllMySat

Download on the App Store